Weather in Rogachevo

Russia / Arkhangel'skaya Oblast'     71°36′43″N   52°27′18″E
temp.,
°C
wind,
m/s
gust,
m/s
humid.,
%
clouds,
%
prec.,
mm/h
press.,
hPa
HPBL,
m
17 october, sun
sun1700:00+3se2397100 0.1 995127
03:00+3ese3498100 0.3 995428
06:00+3ese4598100 0.9 994467
09:00+3ese4598100 1.4 994385
12:00+3ese4697100 0.1 994249
15:00+3e5697100 0.1 993288
18:00+2e4698100 0.1 993346
21:00+2e3599100 0.9 992327
18 october, mon
mon1800:00+2ene3599100 1.3 991262
03:00+2e35100100 2.3 991212
06:00+1ese34100100 1.1 990187
09:00+2s3698100 1.8 990460
12:00+2s5798100 0.1 990402
15:00+2s4698100 0.4 991419
18:00+2se4699100 1.2 992359
21:00+2ese5798100 2.3 992485
19 october, tue
tue1900:00+2e7998100 0.9 994405
03:00+1ene111386100 2.1 995559
06:000ene111481100 0.0 996625
09:000ene111378100 0.1 997675
12:000ne121578100 0.0 998744
15:00−1ne121579100 0.0 999808
18:00−1ne111578100 0.1 1000854
21:00−1ne101479100 0.3 1001929
20 october, wed
wed2000:00−1ne91385100 0.9 1001933
03:00−1ne91283100 1.5 1002911
06:00−1ne71182100 0.1 1002932
09:00−2ne91278100 0.3 1003828
12:00−2ne91276100 0.0 1004615
15:00−3ne81173100 0.0 1004488
18:00−3ne71073100 0.0 1005459
21:00−3ne6972100 0.0 1005405
21 october, thu
thu2100:00−4nne467167 0.0 1005303
03:00−4nne467077 0.0 1005219
06:00−5ne467052 0.0 1004188
09:00−5ne466856 0.0 1004226
12:00−5ne476746 0.0 1003267
15:00−5ne5869100 0.0 1002264
18:00−5ne596851 0.0 1001308
21:00−6ne6972100 0.0 1000306